{"data":{"norad_id":46496,"epoch":"2026-05-25T04:54:21.475872Z","epoch_age_seconds":67575,"freshness":"FRESH","line1":"1 46496U 20068L   26145.20441523  .00011614  00000+0  39072-3 0  9990","line2":"2 46496  97.7483 110.6996 0009468  57.6791 302.5365 15.30925838311275","mean_motion":15.30925838,"eccentricity":0.0009468,"inclination_deg":97.7483,"raan_deg":110.6996,"arg_perigee_deg":57.6791,"mean_anomaly_deg":302.5365,"bstar":0.00039072,"rev_number":31127,"period_min":94.060728760135,"perigee_km":466.5620016686,"apogee_km":479.53540691825,"semimajor_km":6851.1857042934,"source":"CELESTRAK","updated_at":"2026-05-25T13:37:56.325336Z"}}